Time,TemperatureF,DewpointF,PressureIn,WindDirection,WindDirectionDegrees,WindSpeedMPH,WindSpeedGustMPH,Humidity,HourlyPrecipIn,Conditions,Clouds,dailyrainin,SoftwareType,DateUTC
2014-07-22 00:02:00,58.0,55.4,30.03,NNW,331,1.0,2.0,91,0.00,,---,0.00,VWS V13.01,2014-07-22 07:02:00,
2014-07-22 00:07:00,58.0,55.4,30.04,NNW,332,1.0,3.0,91,0.00,,---,0.00,VWS V13.01,2014-07-22 07:07:00,
2014-07-22 00:12:00,58.0,55.4,30.03,NNW,337,1.0,1.0,91,0.00,,---,0.00,VWS V13.01,2014-07-22 07:12:00,
2014-07-22 00:17:00,57.9,55.3,30.03,NNW,338,0.0,2.0,91,0.00,,---,0.00,VWS V13.01,2014-07-22 07:17:00,
2014-07-22 00:22:00,57.7,55.1,30.04,NNW,338,2.0,2.0,91,0.00,,---,0.00,VWS V13.01,2014-07-22 07:22:00,
2014-07-22 00:27:00,57.6,55.0,30.04,NNW,340,1.0,2.0,91,0.00,,---,0.00,VWS V13.01,2014-07-22 07:27:00,
2014-07-22 00:32:00,57.5,54.9,30.04,NNW,340,1.0,3.0,91,0.00,,---,0.00,VWS V13.01,2014-07-22 07:32:00,
2014-07-22 00:37:00,57.5,54.9,30.04,NW,319,1.0,4.0,91,0.00,,---,0.00,VWS V13.01,2014-07-22 07:37:00,
2014-07-22 00:42:00,57.6,55.3,30.04,NW,319,1.0,2.0,92,0.00,,---,0.00,VWS V13.01,2014-07-22 07:42:00,
2014-07-22 00:47:00,57.6,55.0,30.04,NW,319,1.0,2.0,91,0.00,,---,0.00,VWS V13.01,2014-07-22 07:47:00,
2014-07-22 00:52:00,57.5,54.9,30.04,NW,321,2.0,3.0,91,0.00,,---,0.00,VWS V13.01,2014-07-22 07:52:00,
2014-07-22 00:57:00,57.5,54.9,30.05,NW,325,1.0,3.0,91,0.00,,---,0.00,VWS V13.01,2014-07-22 07:57:00,
2014-07-22 01:02:00,57.3,54.7,30.05,NNW,338,1.0,2.0,91,0.00,,---,0.00,VWS V13.01,2014-07-22 08:02:00,
2014-07-22 01:07:00,57.2,54.9,30.05,NNW,338,1.0,2.0,92,0.00,,---,0.00,VWS V13.01,2014-07-22 08:07:00,
2014-07-22 01:12:00,57.1,54.8,30.05,NNW,339,1.0,2.0,92,0.00,,---,0.00,VWS V13.01,2014-07-22 08:12:00,
2014-07-22 01:17:00,57.0,54.7,30.04,NNW,339,0.0,2.0,92,0.00,,---,0.00,VWS V13.01,2014-07-22 08:17:00,
2014-07-22 01:22:00,57.0,54.7,30.05,NNW,339,1.0,2.0,92,0.00,,---,0.00,VWS V13.01,2014-07-22 08:22:00,
2014-07-22 01:27:00,57.1,54.8,30.04,NNW,338,2.0,2.0,92,0.00,,---,0.00,VWS V13.01,2014-07-22 08:27:00,
2014-07-22 01:32:00,57.1,54.8,30.04,NNW,338,1.0,3.0,92,0.00,,---,0.00,VWS V13.01,2014-07-22 08:32:00,
2014-07-22 01:37:00,57.1,54.8,30.04,NNW,339,2.0,3.0,92,0.00,,---,0.00,VWS V13.01,2014-07-22 08:37:00,
2014-07-22 01:42:00,57.2,54.9,30.04,NNW,337,2.0,2.0,92,0.00,,---,0.00,VWS V13.01,2014-07-22 08:42:00,
2014-07-22 01:47:00,57.3,55.0,30.04,NNW,328,1.0,3.0,92,0.00,,---,0.00,VWS V13.01,2014-07-22 08:47:00,
2014-07-22 01:52:00,57.4,55.4,30.04,NNW,338,2.0,3.0,93,0.00,,---,0.00,VWS V13.01,2014-07-22 08:52:00,
2014-07-22 01:57:00,57.5,55.2,30.04,NNW,340,3.0,3.0,92,0.00,,---,0.00,VWS V13.01,2014-07-22 08:57:00,
2014-07-22 02:02:00,57.5,55.2,30.04,NNW,340,1.0,2.0,92,0.00,,---,0.00,VWS V13.01,2014-07-22 09:02:00,
2014-07-22 02:07:00,57.2,54.9,30.04,NNW,340,1.0,2.0,92,0.00,,---,0.00,VWS V13.01,2014-07-22 09:07:00,
2014-07-22 02:12:00,57.0,54.7,30.04,NNW,340,1.0,2.0,92,0.00,,---,0.00,VWS V13.01,2014-07-22 09:12:00,
2014-07-22 02:17:00,57.1,55.1,30.03,NW,319,2.0,3.0,93,0.00,,---,0.00,VWS V13.01,2014-07-22 09:17:00,
2014-07-22 02:22:00,57.2,55.2,30.03,NW,320,2.0,2.0,93,0.00,,---,0.00,VWS V13.01,2014-07-22 09:22:00,
2014-07-22 02:27:00,57.3,55.3,30.03,NW,322,2.0,4.0,93,0.00,,---,0.00,VWS V13.01,2014-07-22 09:27:00,
2014-07-22 02:32:00,57.4,55.4,30.03,NW,313,3.0,4.0,93,0.00,,---,0.00,VWS V13.01,2014-07-22 09:32:00,
2014-07-22 02:37:00,57.4,55.1,30.03,NNW,341,2.0,4.0,92,0.00,,---,0.00,VWS V13.01,2014-07-22 09:37:00,
2014-07-22 02:42:00,57.1,54.8,30.03,NNW,340,1.0,3.0,92,0.00,,---,0.00,VWS V13.01,2014-07-22 09:42:00,
2014-07-22 02:47:00,57.1,55.1,30.03,NNW,327,2.0,4.0,93,0.00,,---,0.00,VWS V13.01,2014-07-22 09:47:00,
2014-07-22 02:52:00,57.2,55.2,30.04,NNW,331,0.0,1.0,93,0.00,,---,0.00,VWS V13.01,2014-07-22 09:52:00,
2014-07-22 02:57:00,57.2,55.2,30.04,NNW,331,0.0,1.0,93,0.00,,---,0.00,VWS V13.01,2014-07-22 09:57:00,
2014-07-22 03:02:00,57.0,55.0,30.04,NNW,331,1.0,1.0,93,0.00,,---,0.00,VWS V13.01,2014-07-22 10:02:00,
2014-07-22 03:07:00,56.8,54.8,30.04,NNW,331,1.0,2.0,93,0.00,,---,0.00,VWS V13.01,2014-07-22 10:07:00,
2014-07-22 03:12:00,56.6,54.6,30.04,NNW,331,1.0,1.0,93,0.00,,---,0.00,VWS V13.01,2014-07-22 10:12:00,
2014-07-22 03:17:00,56.3,54.3,30.03,NNW,331,1.0,2.0,93,0.00,,---,0.00,VWS V13.01,2014-07-22 10:17:00,
2014-07-22 03:22:00,56.5,54.8,30.03,NNW,333,2.0,3.0,94,0.00,,---,0.00,VWS V13.01,2014-07-22 10:22:00,
2014-07-22 03:27:00,56.8,55.1,30.03,NNW,328,2.0,4.0,94,0.00,,---,0.00,VWS V13.01,2014-07-22 10:27:00,
2014-07-22 03:32:00,56.9,55.2,30.03,NNW,341,2.0,2.0,94,0.00,,---,0.00,VWS V13.01,2014-07-22 10:32:00,
2014-07-22 03:37:00,57.1,55.4,30.03,NNW,340,1.0,4.0,94,0.00,,---,0.00,VWS V13.01,2014-07-22 10:37:00,
2014-07-22 03:42:00,57.3,55.6,30.03,NNW,342,2.0,3.0,94,0.00,,---,0.00,VWS V13.01,2014-07-22 10:42:00,
2014-07-22 03:46:00,57.4,55.7,30.03,NNW,330,1.0,3.0,94,0.00,,---,0.00,VWS V13.01,2014-07-22 10:46:00,
2014-07-22 03:51:00,57.2,55.2,30.03,NNW,330,0.0,0.0,93,0.00,,---,0.00,VWS V13.01,2014-07-22 10:51:00,
2014-07-22 03:56:00,57.2,55.5,30.03,NNW,331,2.0,2.0,94,0.00,,---,0.00,VWS V13.01,2014-07-22 10:56:00,
2014-07-22 04:01:00,57.2,55.2,30.03,NNW,331,1.0,1.0,93,0.00,,---,0.00,VWS V13.01,2014-07-22 11:01:00,
2014-07-22 04:07:00,57.1,55.1,30.04,NNW,331,0.0,2.0,93,0.00,,---,0.00,VWS V13.01,2014-07-22 11:07:00,
2014-07-22 04:12:00,57.0,55.3,30.03,NNW,331,1.0,2.0,94,0.00,,---,0.00,VWS V13.01,2014-07-22 11:12:00,
2014-07-22 04:17:00,57.1,55.4,30.03,NNW,330,0.0,2.0,94,0.00,,---,0.00,VWS V13.01,2014-07-22 11:17:00,
2014-07-22 04:22:00,57.4,55.7,30.03,NW,321,1.0,4.0,94,0.00,,---,0.00,VWS V13.01,2014-07-22 11:22:00,
2014-07-22 04:27:00,57.5,55.8,30.05,NW,321,0.0,4.0,94,0.00,,---,0.00,VWS V13.01,2014-07-22 11:27:00,
2014-07-22 04:32:00,57.6,55.9,30.04,NW,321,0.0,0.0,94,0.01,,---,0.01,VWS V13.01,2014-07-22 11:32:00,
2014-07-22 04:37:00,57.7,56.0,30.05,NW,321,0.0,0.0,94,0.01,,---,0.01,VWS V13.01,2014-07-22 11:37:00,
2014-07-22 04:42:00,57.7,56.3,30.05,NW,321,0.0,0.0,95,0.01,,---,0.01,VWS V13.01,2014-07-22 11:42:00,
2014-07-22 04:47:00,57.7,56.3,30.05,NW,321,0.0,0.0,95,0.01,,---,0.01,VWS V13.01,2014-07-22 11:47:00,
2014-07-22 04:52:00,58.0,56.6,30.03,North,355,4.0,5.0,95,0.01,,---,0.01,VWS V13.01,2014-07-22 11:52:00,
2014-07-22 04:57:00,58.8,57.7,29.99,North,5,1.0,10.0,96,0.01,,---,0.02,VWS V13.01,2014-07-22 11:57:00,
2014-07-22 05:02:00,58.9,57.5,30.02,SW,223,1.0,1.0,95,0.06,,---,0.07,VWS V13.01,2014-07-22 12:02:00,
2014-07-22 05:07:00,58.9,57.5,30.04,SW,229,0.0,4.0,95,0.07,,---,0.07,VWS V13.01,2014-07-22 12:07:00,
2014-07-22 05:12:00,58.9,57.5,30.05,SW,229,0.0,1.0,95,0.07,,---,0.07,VWS V13.01,2014-07-22 12:12:00,
2014-07-22 05:17:00,58.9,57.8,30.05,SW,229,1.0,1.0,96,0.07,,---,0.07,VWS V13.01,2014-07-22 12:17:00,
2014-07-22 05:22:00,59.0,57.9,30.04,North,355,1.0,2.0,96,0.07,,---,0.07,VWS V13.01,2014-07-22 12:22:00,
2014-07-22 05:27:00,59.1,58.0,30.04,North,355,1.0,2.0,96,0.07,,---,0.07,VWS V13.01,2014-07-22 12:27:00,
2014-07-22 05:32:00,59.2,58.1,30.04,North,355,0.0,0.0,96,0.07,,---,0.07,VWS V13.01,2014-07-22 12:32:00,
2014-07-22 05:37:00,59.3,58.2,30.04,North,355,0.0,1.0,96,0.06,,---,0.07,VWS V13.01,2014-07-22 12:37:00,
2014-07-22 05:42:00,59.4,58.3,30.03,North,360,1.0,2.0,96,0.06,,---,0.07,VWS V13.01,2014-07-22 12:42:00,
2014-07-22 05:47:00,59.4,58.3,30.04,North,360,0.0,2.0,96,0.06,,---,0.07,VWS V13.01,2014-07-22 12:47:00,
2014-07-22 05:52:00,59.3,58.2,30.04,North,355,1.0,2.0,96,0.06,,---,0.07,VWS V13.01,2014-07-22 12:52:00,
2014-07-22 05:57:00,59.3,58.2,30.04,North,355,0.0,2.0,96,0.06,,---,0.07,VWS V13.01,2014-07-22 12:57:00,
2014-07-22 06:02:00,59.2,58.1,30.04,NNW,347,0.0,1.0,96,0.06,,---,0.07,VWS V13.01,2014-07-22 13:02:00,
2014-07-22 06:07:00,59.2,58.1,30.05,NNW,347,0.0,1.0,96,0.01,,---,0.07,VWS V13.01,2014-07-22 13:07:00,
2014-07-22 06:12:00,59.2,58.1,30.04,NNW,347,0.0,0.0,96,0.01,,---,0.07,VWS V13.01,2014-07-22 13:12:00,
2014-07-22 06:17:00,59.3,58.2,30.04,NNW,347,0.0,1.0,96,0.00,,---,0.07,VWS V13.01,2014-07-22 13:17:00,
2014-07-22 06:22:00,59.3,58.2,30.05,NNW,347,1.0,1.0,96,0.00,,---,0.07,VWS V13.01,2014-07-22 13:22:00,
2014-07-22 06:27:00,59.4,58.3,30.05,NNW,347,0.0,1.0,96,0.00,,---,0.07,VWS V13.01,2014-07-22 13:27:00,
2014-07-22 06:32:00,59.5,58.7,30.05,NNW,347,0.0,1.0,97,0.00,,---,0.07,VWS V13.01,2014-07-22 13:32:00,
2014-07-22 06:37:00,59.6,58.5,30.05,NNW,347,0.0,1.0,96,0.00,,---,0.07,VWS V13.01,2014-07-22 13:37:00,
2014-07-22 06:42:00,59.6,58.5,30.05,NNW,347,1.0,1.0,96,0.00,,---,0.07,VWS V13.01,2014-07-22 13:42:00,
2014-07-22 06:47:00,59.8,59.0,30.05,NNW,347,0.0,1.0,97,0.00,,---,0.07,VWS V13.01,2014-07-22 13:47:00,
2014-07-22 06:52:00,59.9,59.0,30.05,NNW,347,0.0,0.0,97,0.00,,---,0.07,VWS V13.01,2014-07-22 13:52:00,
2014-07-22 06:57:00,60.0,59.2,30.05,NNW,347,0.0,0.0,97,0.00,,---,0.07,VWS V13.01,2014-07-22 13:57:00,
2014-07-22 07:02:00,60.1,59.2,30.05,NNW,347,0.0,0.0,97,0.00,,---,0.07,VWS V13.01,2014-07-22 14:02:00,
2014-07-22 07:07:00,60.2,59.3,30.05,NNW,347,0.0,0.0,97,0.00,,---,0.07,VWS V13.01,2014-07-22 14:07:00,
2014-07-22 07:12:00,60.4,59.5,30.05,NNW,347,0.0,1.0,97,0.00,,---,0.07,VWS V13.01,2014-07-22 14:12:00,
2014-07-22 07:17:00,60.5,59.7,30.06,NNW,347,0.0,1.0,97,0.00,,---,0.07,VWS V13.01,2014-07-22 14:17:00,
2014-07-22 07:21:00,60.8,60.0,30.06,NNW,347,1.0,1.0,97,0.00,,---,0.07,VWS V13.01,2014-07-22 14:21:00,
2014-07-22 07:27:00,60.9,60.0,30.06,NNW,347,1.0,1.0,97,0.00,,---,0.07,VWS V13.01,2014-07-22 14:27:00,
2014-07-22 07:32:00,61.1,60.2,30.06,East,84,2.0,2.0,97,0.00,,---,0.07,VWS V13.01,2014-07-22 14:32:00,
2014-07-22 07:37:00,61.3,60.2,30.06,ENE,68,2.0,4.0,96,0.00,,---,0.07,VWS V13.01,2014-07-22 14:37:00,
2014-07-22 07:42:00,61.2,59.8,30.06,ENE,71,3.0,4.0,95,0.00,,---,0.07,VWS V13.01,2014-07-22 14:42:00,
2014-07-22 07:47:00,61.3,59.6,30.06,East,90,2.0,4.0,94,0.00,,---,0.07,VWS V13.01,2014-07-22 14:47:00,
2014-07-22 07:51:00,61.7,60.3,30.07,East,90,2.0,2.0,95,0.00,,---,0.07,VWS V13.01,2014-07-22 14:51:00,
2014-07-22 07:56:00,62.0,60.3,30.07,East,94,2.0,4.0,94,0.00,,---,0.07,VWS V13.01,2014-07-22 14:56:00,
2014-07-22 08:01:00,62.3,60.8,30.07,ESE,107,1.0,2.0,95,0.00,,---,0.07,VWS V13.01,2014-07-22 15:01:00,
2014-07-22 08:06:00,62.5,60.5,30.07,East,80,1.0,3.0,93,0.00,,---,0.07,VWS V13.01,2014-07-22 15:06:00,
2014-07-22 08:11:00,62.4,60.3,30.07,ESE,109,1.0,2.0,93,0.00,,---,0.07,VWS V13.01,2014-07-22 15:11:00,
2014-07-22 08:16:00,62.6,60.5,30.07,SE,128,1.0,2.0,93,0.00,,---,0.07,VWS V13.01,2014-07-22 15:16:00,
2014-07-22 08:21:00,62.7,60.3,30.07,ESE,117,2.0,3.0,92,0.00,,---,0.07,VWS V13.01,2014-07-22 15:21:00,
2014-07-22 08:26:00,62.8,60.5,30.07,East,99,1.0,3.0,92,0.00,,---,0.07,VWS V13.01,2014-07-22 15:26:00,
2014-07-22 08:31:00,62.9,60.5,30.08,East,95,3.0,3.0,92,0.00,,---,0.07,VWS V13.01,2014-07-22 15:31:00,
2014-07-22 08:36:00,63.0,60.0,30.07,ESE,104,2.0,6.0,90,0.00,,---,0.07,VWS V13.01,2014-07-22 15:36:00,
2014-07-22 08:41:00,63.2,60.2,30.07,ESE,103,3.0,6.0,90,0.00,,---,0.07,VWS V13.01,2014-07-22 15:41:00,
2014-07-22 08:46:00,63.2,59.9,30.07,ENE,74,1.0,7.0,89,0.00,,---,0.07,VWS V13.01,2014-07-22 15:46:00,
2014-07-22 08:51:00,63.4,60.1,30.08,ESE,123,2.0,2.0,89,0.00,,---,0.07,VWS V13.01,2014-07-22 15:51:00,
2014-07-22 08:56:00,63.6,60.3,30.08,ESE,105,3.0,4.0,89,0.00,,---,0.07,VWS V13.01,2014-07-22 15:56:00,
2014-07-22 09:01:00,63.6,60.0,30.08,ESE,107,2.0,2.0,88,0.00,,---,0.07,VWS V13.01,2014-07-22 16:01:00,
2014-07-22 09:06:00,63.9,60.6,30.08,ESE,116,2.0,4.0,89,0.00,,---,0.07,VWS V13.01,2014-07-22 16:06:00,
2014-07-22 09:11:00,64.1,61.1,30.08,SSE,151,0.0,1.0,90,0.00,,---,0.07,VWS V13.01,2014-07-22 16:11:00,
2014-07-22 09:16:00,64.2,61.2,30.08,ESE,121,1.0,5.0,90,0.00,,---,0.07,VWS V13.01,2014-07-22 16:16:00,
2014-07-22 09:21:00,64.3,61.3,30.08,SE,130,2.0,3.0,90,0.01,,---,0.08,VWS V13.01,2014-07-22 16:21:00,
2014-07-22 09:26:00,64.4,60.8,30.08,ESE,119,3.0,5.0,88,0.01,,---,0.08,VWS V13.01,2014-07-22 16:26:00,
2014-07-22 09:31:00,64.7,61.1,30.08,ESE,102,3.0,4.0,88,0.01,,---,0.08,VWS V13.01,2014-07-22 16:31:00,
2014-07-22 09:36:00,65.2,60.2,30.08,ESE,112,4.0,7.0,84,0.01,,---,0.08,VWS V13.01,2014-07-22 16:36:00,
2014-07-22 09:41:00,65.5,60.2,30.08,ESE,116,3.0,5.0,83,0.01,,---,0.08,VWS V13.01,2014-07-22 16:41:00,
2014-07-22 09:46:00,65.6,60.3,30.08,SE,131,3.0,6.0,83,0.01,,---,0.08,VWS V13.01,2014-07-22 16:46:00,
2014-07-22 09:51:00,65.5,60.2,30.08,ESE,118,2.0,6.0,83,0.01,,---,0.08,VWS V13.01,2014-07-22 16:51:00,
2014-07-22 09:56:00,65.7,60.7,30.08,ESE,107,3.0,6.0,84,0.01,,---,0.08,VWS V13.01,2014-07-22 16:56:00,
2014-07-22 10:01:00,65.5,60.2,30.08,ESE,112,3.0,4.0,83,0.01,,---,0.08,VWS V13.01,2014-07-22 17:01:00,
2014-07-22 10:06:00,65.5,60.5,30.09,ESE,117,2.0,6.0,84,0.01,,---,0.08,VWS V13.01,2014-07-22 17:06:00,
2014-07-22 10:11:00,65.9,60.9,30.09,ESE,109,4.0,4.0,84,0.01,,---,0.08,VWS V13.01,2014-07-22 17:11:00,
2014-07-22 10:16:00,66.2,60.5,30.08,ESE,103,4.0,7.0,82,0.01,,---,0.08,VWS V13.01,2014-07-22 17:16:00,
2014-07-22 10:21:00,66.5,60.5,30.09,East,100,4.0,4.0,81,0.01,,---,0.08,VWS V13.01,2014-07-22 17:21:00,
2014-07-22 10:26:00,67.0,61.0,30.09,ESE,107,2.0,7.0,81,0.00,,---,0.08,VWS V13.01,2014-07-22 17:26:00,
2014-07-22 10:31:00,67.8,61.8,30.09,ESE,106,2.0,3.0,81,0.00,,---,0.08,VWS V13.01,2014-07-22 17:31:00,
2014-07-22 10:36:00,68.3,61.2,30.09,ESE,105,4.0,7.0,78,0.00,,---,0.08,VWS V13.01,2014-07-22 17:36:00,
2014-07-22 10:41:00,68.3,61.2,30.09,SE,139,5.0,6.0,78,0.00,,---,0.08,VWS V13.01,2014-07-22 17:41:00,
2014-07-22 10:46:00,68.3,62.2,30.09,SE,126,3.0,7.0,81,0.00,,---,0.08,VWS V13.01,2014-07-22 17:46:00,
2014-07-22 10:51:00,68.3,61.2,30.09,SSE,152,2.0,2.0,78,0.00,,---,0.08,VWS V13.01,2014-07-22 17:51:00,
2014-07-22 10:56:00,68.2,62.5,30.09,SSE,157,1.0,3.0,82,0.00,,---,0.08,VWS V13.01,2014-07-22 17:56:00,
2014-07-22 11:01:00,68.3,61.9,30.09,ESE,113,4.0,6.0,80,0.00,,---,0.08,VWS V13.01,2014-07-22 18:01:00,
2014-07-22 11:06:00,68.5,61.4,30.09,SE,129,4.0,7.0,78,0.00,,---,0.08,VWS V13.01,2014-07-22 18:06:00,
2014-07-22 11:11:00,68.5,60.6,30.09,ESE,118,3.0,3.0,76,0.00,,---,0.08,VWS V13.01,2014-07-22 18:11:00,
2014-07-22 11:16:00,68.9,61.4,30.09,SE,138,0.0,7.0,77,0.00,,---,0.08,VWS V13.01,2014-07-22 18:16:00,
2014-07-22 11:21:00,69.1,62.0,30.09,East,101,1.0,1.0,78,0.00,,---,0.08,VWS V13.01,2014-07-22 18:21:00,
2014-07-22 11:26:00,69.3,63.2,30.09,SSE,161,1.0,3.0,81,0.00,,---,0.08,VWS V13.01,2014-07-22 18:26:00,
2014-07-22 11:31:00,69.1,62.3,30.09,WSW,238,1.0,2.0,79,0.00,,---,0.08,VWS V13.01,2014-07-22 18:31:00,
2014-07-22 11:36:00,68.9,62.8,30.09,WSW,240,1.0,4.0,81,0.00,,---,0.08,VWS V13.01,2014-07-22 18:36:00,
2014-07-22 11:41:00,68.5,61.7,30.09,WSW,238,1.0,1.0,79,0.00,,---,0.08,VWS V13.01,2014-07-22 18:41:00,
2014-07-22 11:46:00,68.6,62.2,30.09,SW,235,2.0,3.0,80,0.00,,---,0.08,VWS V13.01,2014-07-22 18:46:00,
2014-07-22 11:51:00,68.9,61.8,30.09,SSE,161,1.0,1.0,78,0.00,,---,0.08,VWS V13.01,2014-07-22 18:51:00,
2014-07-22 11:56:00,69.7,62.5,30.09,ESE,112,1.0,4.0,78,0.00,,---,0.08,VWS V13.01,2014-07-22 18:56:00,
2014-07-22 12:01:00,69.8,62.3,30.09,SW,231,0.0,1.0,77,0.00,,---,0.08,VWS V13.01,2014-07-22 19:01:00,
2014-07-22 12:06:00,69.7,61.4,30.09,SW,229,2.0,4.0,75,0.00,,---,0.08,VWS V13.01,2014-07-22 19:06:00,
2014-07-22 12:11:00,69.9,61.6,30.09,SSW,205,3.0,3.0,75,0.00,,---,0.08,VWS V13.01,2014-07-22 19:11:00,
2014-07-22 12:16:00,69.5,61.6,30.09,SSW,210,2.0,6.0,76,0.00,,---,0.08,VWS V13.01,2014-07-22 19:16:00,
2014-07-22 12:21:00,69.3,61.4,30.09,SW,219,2.0,2.0,76,0.00,,---,0.08,VWS V13.01,2014-07-22 19:21:00,
2014-07-22 12:26:00,69.2,60.6,30.09,SSW,211,3.0,7.0,74,0.00,,---,0.08,VWS V13.01,2014-07-22 19:26:00,
2014-07-22 12:31:00,69.4,61.5,30.09,SSW,206,3.0,3.0,76,0.00,,---,0.08,VWS V13.01,2014-07-22 19:31:00,
2014-07-22 12:36:00,69.8,61.2,30.09,SW,232,0.0,4.0,74,0.00,,---,0.08,VWS V13.01,2014-07-22 19:36:00,
2014-07-22 12:41:00,70.1,61.8,30.09,SSW,204,1.0,1.0,75,0.00,,---,0.08,VWS V13.01,2014-07-22 19:41:00,
2014-07-22 12:46:00,70.6,62.3,30.09,South,191,2.0,6.0,75,0.00,,---,0.08,VWS V13.01,2014-07-22 19:46:00,
2014-07-22 12:51:00,70.4,61.7,30.09,SW,224,5.0,5.0,74,0.00,,---,0.08,VWS V13.01,2014-07-22 19:51:00,
2014-07-22 12:56:00,70.2,61.9,30.09,South,170,1.0,9.0,75,0.00,,---,0.08,VWS V13.01,2014-07-22 19:56:00,
2014-07-22 13:01:00,70.2,61.2,30.09,SW,219,4.0,4.0,73,0.00,,---,0.08,VWS V13.01,2014-07-22 20:01:00,
2014-07-22 13:06:00,70.3,62.0,30.09,SSW,213,1.0,6.0,75,0.00,,---,0.08,VWS V13.01,2014-07-22 20:06:00,
2014-07-22 13:11:00,70.8,62.5,30.09,South,178,2.0,2.0,75,0.00,,---,0.08,VWS V13.01,2014-07-22 20:11:00,
2014-07-22 13:16:00,71.1,63.5,30.09,SSW,198,1.0,4.0,77,0.00,,---,0.08,VWS V13.01,2014-07-22 20:16:00,
2014-07-22 13:21:00,71.1,62.8,30.09,SW,216,4.0,6.0,75,0.00,,---,0.08,VWS V13.01,2014-07-22 20:21:00,
2014-07-22 13:26:00,70.4,61.7,30.10,South,188,4.0,8.0,74,0.00,,---,0.08,VWS V13.01,2014-07-22 20:26:00,
2014-07-22 13:31:00,70.1,62.2,30.09,SSW,199,3.0,4.0,76,0.00,,---,0.08,VWS V13.01,2014-07-22 20:31:00,
2014-07-22 13:36:00,70.3,63.1,30.09,SW,220,2.0,5.0,78,0.00,,---,0.08,VWS V13.01,2014-07-22 20:36:00,
2014-07-22 13:41:00,70.4,63.2,30.09,SW,217,1.0,1.0,78,0.00,,---,0.08,VWS V13.01,2014-07-22 20:41:00,
2014-07-22 13:46:00,70.6,63.0,30.10,SW,221,1.0,3.0,77,0.00,,---,0.08,VWS V13.01,2014-07-22 20:46:00,
2014-07-22 13:51:00,70.5,63.0,30.10,SE,142,3.0,4.0,77,0.00,,---,0.08,VWS V13.01,2014-07-22 20:51:00,
2014-07-22 13:56:00,70.3,62.8,30.10,South,185,1.0,4.0,77,0.00,,---,0.08,VWS V13.01,2014-07-22 20:56:00,
2014-07-22 14:01:00,70.0,62.8,30.10,SW,214,1.0,1.0,78,0.00,,---,0.08,VWS V13.01,2014-07-22 21:01:00,
2014-07-22 14:06:00,69.8,63.0,30.10,SSE,167,1.0,3.0,79,0.00,,---,0.08,VWS V13.01,2014-07-22 21:06:00,
2014-07-22 14:11:00,69.7,62.9,30.10,SSE,161,1.0,2.0,79,0.00,,---,0.08,VWS V13.01,2014-07-22 21:11:00,
2014-07-22 14:16:00,69.7,62.9,30.10,South,181,1.0,4.0,79,0.00,,---,0.08,VWS V13.01,2014-07-22 21:16:00,
2014-07-22 14:21:00,69.7,63.3,30.10,South,190,1.0,2.0,80,0.00,,---,0.08,VWS V13.01,2014-07-22 21:21:00,
2014-07-22 14:26:00,69.8,63.7,30.10,ESE,119,1.0,4.0,81,0.00,,---,0.08,VWS V13.01,2014-07-22 21:26:00,
2014-07-22 14:31:00,69.8,63.4,30.10,SSW,192,1.0,1.0,80,0.00,,---,0.08,VWS V13.01,2014-07-22 21:31:00,
2014-07-22 14:36:00,69.5,63.4,30.10,SSE,158,0.0,2.0,81,0.00,,---,0.08,VWS V13.01,2014-07-22 21:36:00,
2014-07-22 14:41:00,69.5,63.4,30.10,SW,236,4.0,4.0,81,0.00,,---,0.08,VWS V13.01,2014-07-22 21:41:00,
2014-07-22 14:46:00,69.5,63.1,30.10,SE,139,0.0,4.0,80,0.00,,---,0.08,VWS V13.01,2014-07-22 21:46:00,
2014-07-22 14:51:00,69.7,62.9,30.10,SSW,204,1.0,1.0,79,0.00,,---,0.08,VWS V13.01,2014-07-22 21:51:00,
2014-07-22 14:56:00,69.6,62.8,30.10,South,186,1.0,2.0,79,0.00,,---,0.08,VWS V13.01,2014-07-22 21:56:00,
2014-07-22 15:01:00,69.3,62.9,30.10,SSW,192,1.0,2.0,80,0.00,,---,0.08,VWS V13.01,2014-07-22 22:01:00,
2014-07-22 15:06:00,69.3,63.2,30.10,SSW,192,1.0,3.0,81,0.00,,---,0.08,VWS V13.01,2014-07-22 22:06:00,
2014-07-22 15:11:00,69.8,64.1,30.10,SSW,207,1.0,1.0,82,0.00,,---,0.08,VWS V13.01,2014-07-22 22:11:00,
2014-07-22 15:16:00,70.5,64.4,30.10,SSW,194,1.0,3.0,81,0.00,,---,0.08,VWS V13.01,2014-07-22 22:16:00,
2014-07-22 15:21:00,70.9,64.4,30.10,SSW,192,1.0,1.0,80,0.00,,---,0.08,VWS V13.01,2014-07-22 22:21:00,
2014-07-22 15:26:00,71.4,63.8,30.10,SE,126,4.0,4.0,77,0.00,,---,0.08,VWS V13.01,2014-07-22 22:26:00,
2014-07-22 15:31:00,71.8,63.8,30.09,South,175,2.0,7.0,76,0.00,,---,0.08,VWS V13.01,2014-07-22 22:31:00,
2014-07-22 15:36:00,71.9,64.3,30.09,South,180,1.0,7.0,77,0.00,,---,0.08,VWS V13.01,2014-07-22 22:36:00,
2014-07-22 15:41:00,71.5,63.5,30.09,South,173,1.0,1.0,76,0.00,,---,0.08,VWS V13.01,2014-07-22 22:41:00,
2014-07-22 15:46:00,71.0,64.2,30.09,SW,217,2.0,4.0,79,0.00,,---,0.08,VWS V13.01,2014-07-22 22:46:00,
2014-07-22 15:51:00,70.5,63.7,30.09,SW,225,1.0,1.0,79,0.00,,---,0.08,VWS V13.01,2014-07-22 22:51:00,
2014-07-22 15:56:00,70.3,63.5,30.09,SSE,152,1.0,3.0,79,0.00,,---,0.08,VWS V13.01,2014-07-22 22:56:00,
2014-07-22 16:01:00,69.9,63.5,30.09,SSW,196,1.0,3.0,80,0.00,,---,0.08,VWS V13.01,2014-07-22 23:01:00,
2014-07-22 16:06:00,70.1,63.7,30.09,SE,143,1.0,6.0,80,0.00,,---,0.08,VWS V13.01,2014-07-22 23:06:00,
2014-07-22 16:11:00,70.5,64.0,30.09,South,182,1.0,2.0,80,0.00,,---,0.08,VWS V13.01,2014-07-22 23:11:00,
2014-07-22 16:16:00,70.7,63.9,30.09,South,178,1.0,3.0,79,0.00,,---,0.08,VWS V13.01,2014-07-22 23:16:00,
2014-07-22 16:21:00,70.6,63.0,30.09,ESE,121,1.0,1.0,77,0.00,,---,0.08,VWS V13.01,2014-07-22 23:21:00,
2014-07-22 16:26:00,71.0,63.8,30.09,South,190,1.0,3.0,78,0.00,,---,0.08,VWS V13.01,2014-07-22 23:26:00,
2014-07-22 16:31:00,71.1,63.9,30.09,SW,232,0.0,1.0,78,0.00,,---,0.08,VWS V13.01,2014-07-22 23:31:00,
2014-07-22 16:36:00,71.3,64.1,30.09,SSW,198,1.0,3.0,78,0.00,,---,0.08,VWS V13.01,2014-07-22 23:36:00,
2014-07-22 16:41:00,71.3,63.7,30.09,South,182,1.0,3.0,77,0.00,,---,0.08,VWS V13.01,2014-07-22 23:41:00,
2014-07-22 16:46:00,71.1,63.5,30.09,SSW,201,2.0,8.0,77,0.00,,---,0.08,VWS V13.01,2014-07-22 23:46:00,
2014-07-22 16:51:00,71.3,64.1,30.09,SW,223,1.0,2.0,78,0.00,,---,0.08,VWS V13.01,2014-07-22 23:51:00,
2014-07-22 16:56:00,71.3,64.1,30.09,SW,221,2.0,6.0,78,0.00,,---,0.08,VWS V13.01,2014-07-22 23:56:00,
2014-07-22 17:01:00,71.2,63.6,30.09,SSW,213,1.0,3.0,77,0.00,,---,0.08,VWS V13.01,2014-07-23 00:01:00,
2014-07-22 17:06:00,70.9,63.7,30.09,South,180,2.0,3.0,78,0.00,,---,0.08,VWS V13.01,2014-07-23 00:06:00,
2014-07-22 17:11:00,71.2,64.4,30.08,SSW,209,1.0,1.0,79,0.00,,---,0.08,VWS V13.01,2014-07-23 00:11:00,
2014-07-22 17:16:00,71.3,63.7,30.08,South,173,2.0,6.0,77,0.00,,---,0.08,VWS V13.01,2014-07-23 00:16:00,
2014-07-22 17:21:00,71.4,64.2,30.08,SE,126,1.0,2.0,78,0.00,,---,0.08,VWS V13.01,2014-07-23 00:21:00,
2014-07-22 17:26:00,71.3,64.1,30.08,ESE,121,2.0,6.0,78,0.00,,---,0.08,VWS V13.01,2014-07-23 00:26:00,
2014-07-22 17:31:00,71.2,63.6,30.08,West,266,2.0,4.0,77,0.00,,---,0.08,VWS V13.01,2014-07-23 00:31:00,
2014-07-22 17:36:00,70.5,63.7,30.08,South,180,1.0,6.0,79,0.00,,---,0.08,VWS V13.01,2014-07-23 00:36:00,
2014-07-22 17:41:00,70.4,63.9,30.08,SW,217,1.0,1.0,80,0.00,,---,0.08,VWS V13.01,2014-07-23 00:41:00,
2014-07-22 17:46:00,70.2,63.4,30.08,SSW,210,1.0,5.0,79,0.00,,---,0.08,VWS V13.01,2014-07-23 00:46:00,
2014-07-22 17:51:00,70.2,63.4,30.08,ESE,114,6.0,6.0,79,0.00,,---,0.08,VWS V13.01,2014-07-23 00:51:00,
2014-07-22 17:56:00,69.7,63.3,30.08,WSW,246,2.0,6.0,80,0.00,,---,0.08,VWS V13.01,2014-07-23 00:56:00,
2014-07-22 18:01:00,69.6,63.5,30.08,ESE,109,7.0,7.0,81,0.00,,---,0.08,VWS V13.01,2014-07-23 01:01:00,
2014-07-22 18:06:00,69.5,63.4,30.08,SSW,196,1.0,7.0,81,0.00,,---,0.08,VWS V13.01,2014-07-23 01:06:00,
2014-07-22 18:12:00,69.5,63.4,30.08,South,184,1.0,1.0,81,0.00,,---,0.08,VWS V13.01,2014-07-23 01:12:00,
2014-07-22 18:17:00,69.3,62.9,30.08,ESE,122,1.0,7.0,80,0.00,,---,0.08,VWS V13.01,2014-07-23 01:17:00,
2014-07-22 18:22:00,69.3,63.2,30.08,SSE,147,1.0,1.0,81,0.00,,---,0.08,VWS V13.01,2014-07-23 01:22:00,
2014-07-22 18:27:00,69.3,62.9,30.08,SSE,147,4.0,6.0,80,0.00,,---,0.08,VWS V13.01,2014-07-23 01:27:00,
2014-07-22 18:32:00,68.8,63.1,30.08,ESE,111,0.0,1.0,82,0.00,,---,0.08,VWS V13.01,2014-07-23 01:32:00,
2014-07-22 18:37:00,68.3,62.6,30.08,ESE,123,2.0,7.0,82,0.00,,---,0.08,VWS V13.01,2014-07-23 01:37:00,
2014-07-22 18:42:00,67.8,62.5,30.08,East,92,4.0,4.0,83,0.00,,---,0.08,VWS V13.01,2014-07-23 01:42:00,
2014-07-22 18:47:00,67.8,62.5,30.08,ESE,114,1.0,6.0,83,0.00,,---,0.08,VWS V13.01,2014-07-23 01:47:00,
2014-07-22 18:52:00,67.6,62.3,30.08,ESE,116,4.0,4.0,83,0.00,,---,0.08,VWS V13.01,2014-07-23 01:52:00,
2014-07-22 18:57:00,67.2,62.2,30.08,ESE,109,3.0,5.0,84,0.00,,---,0.08,VWS V13.01,2014-07-23 01:57:00,
2014-07-22 19:02:00,67.0,62.0,30.08,SE,133,3.0,3.0,84,0.00,,---,0.08,VWS V13.01,2014-07-23 02:02:00,
2014-07-22 19:07:00,66.8,62.2,30.08,ESE,123,4.0,7.0,85,0.00,,---,0.08,VWS V13.01,2014-07-23 02:07:00,
2014-07-22 19:12:00,66.6,62.0,30.08,ESE,122,3.0,6.0,85,0.00,,---,0.08,VWS V13.01,2014-07-23 02:12:00,
2014-07-22 19:17:00,66.4,61.8,30.08,ESE,123,3.0,6.0,85,0.00,,---,0.08,VWS V13.01,2014-07-23 02:17:00,
2014-07-22 19:22:00,66.3,62.0,30.08,ESE,117,0.0,1.0,86,0.00,,---,0.08,VWS V13.01,2014-07-23 02:22:00,
2014-07-22 19:27:00,66.1,61.5,30.08,ESE,121,1.0,6.0,85,0.00,,---,0.08,VWS V13.01,2014-07-23 02:27:00,
2014-07-22 19:31:00,65.8,61.2,30.08,SE,134,0.0,0.0,85,0.00,,---,0.08,VWS V13.01,2014-07-23 02:31:00,
2014-07-22 19:37:00,65.7,61.4,30.08,SE,144,0.0,2.0,86,0.00,,---,0.08,VWS V13.01,2014-07-23 02:37:00,
2014-07-22 19:42:00,65.6,61.3,30.08,SE,144,0.0,1.0,86,0.00,,---,0.08,VWS V13.01,2014-07-23 02:42:00,
2014-07-22 19:47:00,65.6,61.3,30.08,ESE,113,1.0,4.0,86,0.00,,---,0.08,VWS V13.01,2014-07-23 02:47:00,
2014-07-22 19:52:00,65.4,61.1,30.08,SE,125,2.0,3.0,86,0.00,,---,0.08,VWS V13.01,2014-07-23 02:52:00,
2014-07-22 19:56:00,65.4,61.1,30.08,SE,136,2.0,4.0,86,0.00,,---,0.08,VWS V13.01,2014-07-23 02:56:00,
2014-07-22 20:01:00,65.3,61.3,30.08,ESE,120,0.0,1.0,87,0.00,,---,0.08,VWS V13.01,2014-07-23 03:01:00,
2014-07-22 20:06:00,65.2,61.2,30.08,ESE,119,0.0,4.0,87,0.00,,---,0.08,VWS V13.01,2014-07-23 03:06:00,
2014-07-22 20:11:00,65.0,61.4,30.09,SE,132,0.0,0.0,88,0.00,,---,0.08,VWS V13.01,2014-07-23 03:11:00,
2014-07-22 20:16:00,64.9,61.3,30.09,SE,142,1.0,4.0,88,0.00,,---,0.08,VWS V13.01,2014-07-23 03:16:00,
2014-07-22 20:21:00,64.9,61.3,30.09,ESE,122,0.0,1.0,88,0.00,,---,0.08,VWS V13.01,2014-07-23 03:21:00,
2014-07-22 20:26:00,64.8,61.2,30.09,SE,127,0.0,2.0,88,0.00,,---,0.08,VWS V13.01,2014-07-23 03:26:00,
2014-07-22 20:31:00,64.8,61.2,30.09,SE,132,1.0,2.0,88,0.00,,---,0.08,VWS V13.01,2014-07-23 03:31:00,
2014-07-22 20:36:00,64.8,61.2,30.09,SE,132,1.0,2.0,88,0.00,,---,0.08,VWS V13.01,2014-07-23 03:36:00,
2014-07-22 20:41:00,64.7,61.1,30.09,SE,132,0.0,0.0,88,0.00,,---,0.08,VWS V13.01,2014-07-23 03:41:00,
2014-07-22 20:46:00,64.7,61.4,30.09,SE,132,0.0,2.0,89,0.00,,---,0.08,VWS V13.01,2014-07-23 03:46:00,
2014-07-22 20:51:00,64.7,61.4,30.09,SE,132,1.0,2.0,89,0.00,,---,0.08,VWS V13.01,2014-07-23 03:51:00,
2014-07-22 20:56:00,64.6,61.3,30.09,ESE,117,1.0,3.0,89,0.00,,---,0.08,VWS V13.01,2014-07-23 03:56:00,
2014-07-22 21:01:00,64.6,61.3,30.09,ESE,107,2.0,3.0,89,0.00,,---,0.08,VWS V13.01,2014-07-23 04:01:00,
2014-07-22 21:02:00,64.6,61.3,30.09,ESE,107,0.0,1.0,89,0.00,,---,0.08,VWS V13.01,2014-07-23 04:02:00,
2014-07-22 21:07:00,64.5,61.2,30.09,ESE,110,0.0,3.0,89,0.00,,---,0.08,VWS V13.01,2014-07-23 04:07:00,
2014-07-22 21:12:00,64.5,61.2,30.09,ESE,110,1.0,1.0,89,0.00,,---,0.08,VWS V13.01,2014-07-23 04:12:00,
2014-07-22 21:17:00,64.5,61.2,30.09,ESE,110,0.0,1.0,89,0.00,,---,0.08,VWS V13.01,2014-07-23 04:17:00,
2014-07-22 21:22:00,64.4,61.1,30.10,ESE,110,1.0,2.0,89,0.00,,---,0.08,VWS V13.01,2014-07-23 04:22:00,
2014-07-22 21:27:00,64.4,61.1,30.10,SE,127,1.0,3.0,89,0.00,,---,0.08,VWS V13.01,2014-07-23 04:27:00,
2014-07-22 21:32:00,64.5,61.2,30.10,ESE,122,0.0,3.0,89,0.00,,---,0.08,VWS V13.01,2014-07-23 04:32:00,
2014-07-22 21:37:00,64.5,61.2,30.10,ESE,111,2.0,4.0,89,0.00,,---,0.08,VWS V13.01,2014-07-23 04:37:00,
2014-07-22 21:42:00,64.5,61.2,30.10,ESE,121,1.0,3.0,89,0.00,,---,0.08,VWS V13.01,2014-07-23 04:42:00,
2014-07-22 21:47:00,64.6,61.3,30.10,ESE,116,0.0,3.0,89,0.00,,---,0.08,VWS V13.01,2014-07-23 04:47:00,
2014-07-22 21:52:00,64.6,61.3,30.10,ESE,117,0.0,1.0,89,0.00,,---,0.08,VWS V13.01,2014-07-23 04:52:00,
2014-07-22 21:57:00,64.5,61.2,30.10,ESE,117,0.0,1.0,89,0.00,,---,0.08,VWS V13.01,2014-07-23 04:57:00,
2014-07-22 22:02:00,64.4,61.1,30.11,ESE,117,0.0,0.0,89,0.00,,---,0.08,VWS V13.01,2014-07-23 05:02:00,
2014-07-22 22:07:00,64.3,61.0,30.11,ESE,118,0.0,0.0,89,0.00,,---,0.08,VWS V13.01,2014-07-23 05:07:00,
2014-07-22 22:12:00,64.1,61.1,30.11,ESE,118,0.0,0.0,90,0.00,,---,0.08,VWS V13.01,2014-07-23 05:12:00,
2014-07-22 22:17:00,64.1,61.1,30.11,ESE,118,1.0,2.0,90,0.00,,---,0.08,VWS V13.01,2014-07-23 05:17:00,
2014-07-22 22:22:00,64.0,61.0,30.11,ESE,118,0.0,0.0,90,0.00,,---,0.08,VWS V13.01,2014-07-23 05:22:00,
2014-07-22 22:27:00,64.0,61.0,30.11,ESE,118,0.0,1.0,90,0.00,,---,0.08,VWS V13.01,2014-07-23 05:27:00,
2014-07-22 22:32:00,64.0,61.0,30.11,ESE,118,0.0,0.0,90,0.00,,---,0.08,VWS V13.01,2014-07-23 05:32:00,
2014-07-22 22:37:00,63.9,60.9,30.11,ESE,118,0.0,1.0,90,0.00,,---,0.08,VWS V13.01,2014-07-23 05:37:00,
2014-07-22 22:42:00,63.9,60.9,30.11,ESE,118,2.0,2.0,90,0.00,,---,0.08,VWS V13.01,2014-07-23 05:42:00,
2014-07-22 22:47:00,64.0,61.0,30.11,SSE,167,0.0,3.0,90,0.00,,---,0.08,VWS V13.01,2014-07-23 05:47:00,
2014-07-22 22:52:00,63.9,60.9,30.11,SSE,167,0.0,0.0,90,0.00,,---,0.08,VWS V13.01,2014-07-23 05:52:00,
2014-07-22 22:57:00,64.0,61.0,30.11,SSE,167,0.0,1.0,90,0.00,,---,0.08,VWS V13.01,2014-07-23 05:57:00,
2014-07-22 23:02:00,63.9,60.9,30.11,SSE,167,1.0,1.0,90,0.00,,---,0.08,VWS V13.01,2014-07-23 06:02:00,